Location: Cerezo de Arriba
(41.2389°N, 3.5585°W)
Time: 03:13:36
(UTC+00:00)

DELTA 2 R/B (1) - Pass Details

Date: 19 May 2025
Orbit: 787 x 800 km, 39.6° (Epoch: 23 June)

Event Time Altitude Azimuth Distance (km) Brightness Sun altitude
Rises 20:24:13 0° 229° (SW) 3,262 6.9 -9.4°
Reaches altitude 10° 20:26:50 10° 221° (SW) 2,337 6.1 -9.8°
Maximum altitude 20:31:52 37° 155° (SSE) 1,196 4.1 -10.6°
Drops below altitude 10° 20:36:56 10° 89° (E) 2,350 5.6 -11.3°
Enters shadow 20:38:22 - 84° (E) 2,852 6.0 -11.5°
